TimeEDT,TemperatureF,Dew PointF,Humidity,Sea Level PressureIn,VisibilityMPH,Wind Direction,Wind SpeedMPH,Gust SpeedMPH,PrecipitationIn,Events,Conditions,WindDirDegrees,DateUTC
12:01 AM,57.2,53.6,88,29.95,10.0,NE,12.7,20.7,0.00,Thunderstorm,Overcast,50,2013-05-22 04:01:00
12:28 AM,57.2,53.6,88,29.95,10.0,Variable,5.8,-,0.00,Rain,Light Rain,0,2013-05-22 04:28:00
12:35 AM,55.4,53.6,94,29.95,10.0,Variable,3.5,-,0.00,Thunderstorm,Thunderstorm,0,2013-05-22 04:35:00
12:50 AM,57.2,51.8,82,29.94,10.0,Calm,Calm,-,0.00,,Overcast,0,2013-05-22 04:50:00
12:53 AM,55.9,52.0,87,29.94,10.0,Calm,Calm,-,0.00,,Overcast,0,2013-05-22 04:53:00
1:02 AM,55.4,53.6,94,29.94,10.0,Calm,Calm,-,N/A,,Overcast,0,2013-05-22 05:02:00
1:39 AM,57.2,51.8,82,29.93,10.0,Calm,Calm,-,N/A,,Overcast,0,2013-05-22 05:39:00
1:53 AM,57.0,52.0,83,29.93,10.0,Calm,Calm,-,N/A,,Overcast,0,2013-05-22 05:53:00
2:20 AM,57.2,51.8,82,29.95,10.0,Calm,Calm,-,N/A,,Overcast,0,2013-05-22 06:20:00
2:42 AM,57.2,53.6,88,29.98,6.0,ENE,9.2,26.5,0.00,Rain,Light Rain,70,2013-05-22 06:42:00
2:53 AM,57.0,54.0,89,29.95,5.0,NE,5.8,-,0.03,Rain,Rain,40,2013-05-22 06:53:00
3:33 AM,55.4,53.6,94,29.94,8.0,Calm,Calm,-,0.09,Rain,Light Rain,0,2013-05-22 07:33:00
3:53 AM,55.9,53.1,90,29.94,6.0,SSW,4.6,-,0.13,Rain,Rain,210,2013-05-22 07:53:00
4:23 AM,55.4,53.6,94,29.92,9.0,SW,5.8,-,0.07,Rain,Light Rain,220,2013-05-22 08:23:00
4:36 AM,55.4,53.6,94,29.92,5.0,South,5.8,-,0.11,Rain,Rain,190,2013-05-22 08:36:00
4:49 AM,55.4,53.6,94,29.91,6.0,South,4.6,-,0.14,Rain,Rain,170,2013-05-22 08:49:00
4:53 AM,55.0,54.0,96,29.88,4.0,SSE,10.4,-,0.18,Rain,Heavy Rain,150,2013-05-22 08:53:00
5:09 AM,55.4,53.6,94,29.91,10.0,Variable,5.8,-,0.00,Thunderstorm,Thunderstorm,0,2013-05-22 09:09:00
5:30 AM,55.4,53.6,94,29.93,7.0,SW,8.1,-,0.05,Rain,Rain,220,2013-05-22 09:30:00
5:51 AM,55.4,53.6,94,29.93,10.0,SSW,5.8,-,0.11,Thunderstorm,Overcast,210,2013-05-22 09:51:00
5:53 AM,55.9,54.0,93,29.93,10.0,SSW,6.9,-,0.11,Thunderstorm,Overcast,210,2013-05-22 09:53:00
6:06 AM,55.4,53.6,94,29.92,10.0,SW,4.6,-,N/A,,Overcast,220,2013-05-22 10:06:00
6:53 AM,57.0,55.0,93,29.91,10.0,South,5.8,-,N/A,,Scattered Clouds,170,2013-05-22 10:53:00
7:44 AM,57.2,55.4,94,29.90,10.0,South,6.9,-,N/A,,Mostly Cloudy,170,2013-05-22 11:44:00
7:53 AM,59.0,55.9,90,29.90,10.0,South,9.2,-,N/A,,Mostly Cloudy,170,2013-05-22 11:53:00
7:55 AM,59.0,55.4,88,29.90,10.0,South,8.1,-,N/A,,Scattered Clouds,170,2013-05-22 11:55:00
8:38 AM,60.8,57.2,88,29.91,5.0,South,10.4,-,N/A,,Overcast,170,2013-05-22 12:38:00
8:53 AM,60.1,57.0,90,29.92,3.0,South,9.2,-,N/A,,Overcast,170,2013-05-22 12:53:00
9:03 AM,60.8,57.2,88,29.91,3.0,South,9.2,-,N/A,,Overcast,180,2013-05-22 13:03:00
9:53 AM,62.1,59.0,90,29.92,5.0,South,6.9,-,N/A,,Overcast,170,2013-05-22 13:53:00
10:31 AM,62.6,59.0,88,29.92,10.0,SSE,8.1,-,N/A,,Overcast,160,2013-05-22 14:31:00
10:53 AM,64.0,60.1,87,29.93,6.0,South,6.9,-,N/A,,Overcast,180,2013-05-22 14:53:00
11:53 AM,66.9,61.0,81,29.91,10.0,SSE,4.6,-,N/A,,Overcast,150,2013-05-22 15:53:00
12:36 PM,69.8,62.6,78,29.90,10.0,SSE,4.6,-,N/A,,Overcast,150,2013-05-22 16:36:00
12:44 PM,69.8,62.6,78,29.90,10.0,SE,4.6,-,N/A,,Overcast,130,2013-05-22 16:44:00
12:53 PM,71.1,63.0,75,29.90,10.0,SSE,5.8,-,N/A,,Mostly Cloudy,150,2013-05-22 16:53:00
1:17 PM,71.6,62.6,73,29.89,10.0,Variable,6.9,-,N/A,,Overcast,0,2013-05-22 17:17:00
1:35 PM,73.4,64.4,73,29.88,10.0,SSE,6.9,-,N/A,,Scattered Clouds,160,2013-05-22 17:35:00
1:53 PM,73.0,64.0,73,29.87,10.0,SSE,8.1,-,N/A,,Partly Cloudy,150,2013-05-22 17:53:00
2:53 PM,77.0,66.0,69,29.86,10.0,SE,5.8,-,N/A,,Partly Cloudy,140,2013-05-22 18:53:00
3:53 PM,77.0,66.9,71,29.85,10.0,South,5.8,-,N/A,,Clear,170,2013-05-22 19:53:00
4:53 PM,73.9,66.0,76,29.82,10.0,SSE,9.2,-,N/A,,Clear,160,2013-05-22 20:53:00
5:53 PM,75.0,66.9,76,29.84,8.0,SSE,4.6,-,N/A,,Clear,160,2013-05-22 21:53:00
6:53 PM,75.9,66.9,74,29.84,10.0,SSE,8.1,-,N/A,,Clear,160,2013-05-22 22:53:00
7:45 PM,73.4,66.2,78,29.85,8.0,South,6.9,-,N/A,,Mostly Cloudy,170,2013-05-22 23:45:00
7:53 PM,73.9,66.9,79,29.85,8.0,SSE,5.8,-,N/A,,Mostly Cloudy,160,2013-05-22 23:53:00
8:53 PM,73.0,66.9,81,29.86,9.0,SE,5.8,-,N/A,,Overcast,130,2013-05-23 00:53:00
9:53 PM,72.0,66.0,81,29.88,9.0,SSE,6.9,-,N/A,,Overcast,150,2013-05-23 01:53:00
10:50 PM,71.6,66.2,83,29.87,8.0,SSE,9.2,-,N/A,,Overcast,160,2013-05-23 02:50:00
10:53 PM,70.0,66.0,87,29.88,8.0,South,8.1,-,N/A,,Overcast,170,2013-05-23 02:53:00
11:15 PM,69.8,66.2,88,29.87,7.0,SSE,8.1,-,N/A,,Overcast,160,2013-05-23 03:15:00
11:53 PM,69.1,66.0,90,29.87,4.0,South,9.2,-,N/A,,Overcast,170,2013-05-23 03:53:00